TOURFACTS.DK  
Stats and Facts from Tour de France.

Tour de France 2017 starts in 5 days
  Riders   Stages   Teams   Summits   Yearly  


 
Search by year

 After:  2016 - Stage 21:
  14626 starters.
  5086 different riders.
  634 teams.
  2211 stages.
  454 restdays.
  436049.60 km.
  5622 abandonnees.


Top 3
Christopher Froome89:04:48
Romain Bardet89:08:53
Nairo Quintana89:09:09
Rafal Majka209 pt.
Thomas De Gendt130 pt.
Jarlinson Pantano ..121 pt.
Peter Sagan470 pt.
Marcel Kittel228 pt.
Michael Matthews199 pt.
Adam Yates89:09:30
Louis Meintjes89:11:46
Emanuel Buchmann89:52:28
Facts from Tour de France 1938
  |   Stages.  |   Stage winners.  |   Days in yellow  |   Average speed.  |   Route.  |   Teams.  |   All riders.  |   Rookies.  |   Withdrawls.  |  

  |   GC.  |   Polka  |   Green  |   White  |   Summits. (In tour)  |   Summits. (Points)  |   Miscellaneous.  |  

Stage 1 on 05 - 07 - 1938
         Owning:        
Pick a stage:  1 2 3 4a 4b 4c 5 6a 6b 7 8 9 10a 10b 10c 11 12 13 14 15 16 17a 17b 18 19 20a 20b 20c 21
  ParisCaen | Dist: 215.00 km.

Average speed for all riders in stage:  31,885 km./hr.
    Place:Name:Team:Time:Km/h:
DEUWilli OberbeckDEUGermany06:38:25  +  00:00:00=32,378 
ITAAldo BiniITAItaly06:38:35  +  00:00:10=32,365 
NLDTheo MiddelkampNLDHolland06:38:35  +  00:00:10=32,365 
4 BELMarcel KintBELBelgium06:38:35  +  00:00:10=32,365 
5 DEUOtto WeckerlingDEUGermany06:38:35  +  00:00:10=32,365 
6 BELFrançois NeuvilleBELBelgium06:38:55  +  00:00:30=32,338 
7 FRAAndré LeducqFRACadets06:38:55  +  00:00:30=32,338 
8 NLDGerrit SchulteNLDHolland06:39:03  +  00:00:38=32,327 
9 FRAAntonin MagneFRAFrance06:39:03  +  00:00:38=32,327 
10 ITAGiuseppe MartanoITAItaly06:39:03  +  00:00:38=32,327 
11 ITAGino BartaliITAItaly06:39:03  +  00:00:38=32,327 
12 BELFélicien VervaeckeBELBelgium06:39:03  +  00:00:38=32,327 
13 FRAJean-Marie GoasmatFRAFrance06:39:03  +  00:00:38=32,327 
14 BELRene WalschotBELBelgium06:39:03  +  00:00:38=32,327 
15 LUXJean MajerusLUXLuxembourg06:39:03  +  00:00:38=32,327 
16 FRAMathias ClemensLUXLuxembourg06:39:03  +  00:00:38=32,327 
17 BELSylvère MaesBELBelgium06:39:21  +  00:00:56=32,302 
18 BELAlbertin DisseauxBELBelgium06:39:21  +  00:00:56=32,302 
19 BELÉloi MeulenbergBELBelgium06:39:21  +  00:00:56=32,302 
20 BELEmile Masson jr.BELBelgium06:39:21  +  00:00:56=32,302 
21 BELJules LowieBELBelgium06:39:21  +  00:00:56=32,302 
22 BELEdward VissersBELBelgium06:39:21  +  00:00:56=32,302 
23 BELConstant LauwersBELBelgium06:39:21  +  00:00:56=32,302 
24 ITAGlauco ServadeiITAItaly06:39:21  +  00:00:56=32,302 
25 FRAJules RossiITAItaly06:39:21  +  00:00:56=32,302 
26 ITAMario ViciniITAItaly06:39:21  +  00:00:56=32,302 
27 ITANello TroggiITAItaly06:39:21  +  00:00:56=32,302 
28 DEUHerbert HauswaldDEUGermany06:39:21  +  00:00:56=32,302 
29 DEUHeinz WenglerDEUGermany06:39:21  +  00:00:56=32,302 
30 DEUReinhold WendelDEUGermany06:39:21  +  00:00:56=32,302 
31 DEUJosef ArentsDEUGermany06:39:21  +  00:00:56=32,302 
32 DEUPaul LanghoffDEUGermany06:39:21  +  00:00:56=32,302 
33 DEUKarl HeideDEUGermany06:39:21  +  00:00:56=32,302 
34 FRAPierre GallienFRAFrance06:39:21  +  00:00:56=32,302 
35 FRAAuguste MalletFRAFrance06:39:21  +  00:00:56=32,302 
36 FRAGeorges SpeicherFRAFrance06:39:21  +  00:00:56=32,302 
37 ESPMariano CañardoESPSpain06:39:21  +  00:00:56=32,302 
38 CHEEdgar HehlenCHESwitzerland06:39:21  +  00:00:56=32,302 
39 NLDPiet Van NekNLDHolland06:39:21  +  00:00:56=32,302 
40 LUXFrançois NeuensLUXLuxembourg06:39:21  +  00:00:56=32,302 
41 LUXArsène MerschLUXLuxembourg06:39:21  +  00:00:56=32,302 
42 FRARobert OubronFRACadets06:39:21  +  00:00:56=32,302 
43 FRAYvan MarieFRACadets06:39:21  +  00:00:56=32,302 
44 FRARaymond PassatFRACadets06:39:21  +  00:00:56=32,302 
45 FRALucien Le GuevelFRABluets06:39:21  +  00:00:56=32,302 
46 FRAJoseph GoutorbeFRABluets06:39:21  +  00:00:56=32,302 
47 FRAEloi TassinFRABluets06:39:21  +  00:00:56=32,302 
48 FRAMarcel LaurentFRAFrance06:39:40  +  00:01:15=32,277 
49 FRAVictor CossonFRAFrance06:39:40  +  00:01:15=32,277 
50 FRARobert TanneveauFRACadets06:39:40  +  00:01:15=32,277 
51 DEUHermann SchildDEUGermany06:39:47  +  00:01:22=32,267 
52 FRAJean FontenayFRACadets06:39:56  +  00:01:31=32,255 
53 ITAVasco BergamaschiITAItaly06:40:02  +  00:01:37=32,247 
54 FRARené ViettoFRACadets06:40:02  +  00:01:37=32,247 
55 ITAGiordano CotturITAItaly06:40:02  +  00:01:37=32,247 
56 ESPRafael RamosESPSpain06:40:02  +  00:01:37=32,247 
57 DEUPaul SeidelDEUGermany06:40:45  +  00:02:20=32,190 
58 CHEPaul EgliCHESwitzerland06:40:45  +  00:02:20=32,190 
59 CHETheo PerretCHESwitzerland06:40:45  +  00:02:20=32,190 
60 FRACamille LeroyFRABluets06:40:45  +  00:02:20=32,190 
61 ITAPierre SpaperiFRABluets06:40:45  +  00:02:20=32,190 
62 FRASylvain MarcaillouFRAFrance06:41:33  +  00:03:08=32,126 
63 CHERaymond LouviotFRACadets06:41:33  +  00:03:08=32,126 
64 CHEAlbert KnuttiCHESwitzerland06:42:04  +  00:03:39=32,084 
65 DEUFritz SchellerDEUGermany06:42:04  +  00:03:39=32,084 
66 FRAPierre ClemensLUXLuxembourg06:42:04  +  00:03:39=32,084 
67 NLDJef DominicusNLDHolland06:42:20  +  00:03:55=32,063 
68 FRAJean FréchautFRAFrance06:42:20  +  00:03:55=32,063 
69 ITADante GianelloFRABluets06:42:20  +  00:03:55=32,063 
70 NLDAntoon Van SchendelNLDHolland06:42:20  +  00:03:55=32,063 
71 ITAOreste BernardoniFRABluets06:43:18  +  00:04:53=31,986 
72 FRARaoul LesueurFRACadets06:43:18  +  00:04:53=31,986 
73 FRAFabien GalateauFRACadets06:45:52  +  00:07:27=31,784 
74 ESPJacques AlzineESPSpain06:45:52  +  00:07:27=31,784 
75 ITALuigi IntrozziITAItaly06:45:52  +  00:07:27=31,784 
76 CHEBruno CariniFRACadets06:46:58  +  00:08:33=31,698 
77 ITASettimo SimoniniITAItaly06:46:58  +  00:08:33=31,698 
78 FRASauveur DucazeauxFRACadets06:48:51  +  00:10:26=31,552 
79 FRAGeorges NaisseFRAFrance06:50:16  +  00:11:51=31,443 
80 CHEBruno BesanaCHESwitzerland06:50:16  +  00:11:51=31,443 
81 ITAEnrico MolloITAItaly06:50:16  +  00:11:51=31,443 
82 FRALucien LamureFRABluets06:50:16  +  00:11:51=31,443 
83 FRAAlbert BourlonFRABluets06:56:45  +  00:18:20=30,954 
84 ESPJulián BerrenderoESPSpain06:56:45  +  00:18:20=30,954 
85 BELRené PédroliCHESwitzerland06:56:45  +  00:18:20=30,954 
86 FRAAndre LeforgeFRABluets06:56:45  +  00:18:20=30,954 
87 NLDJanus HellemonsNLDHolland06:56:45  +  00:18:20=30,954 
88 LUXChristophe DidierLUXLuxembourg06:56:45  +  00:18:20=30,954 
89 FRAGaston GrimbertFRABluets06:56:45  +  00:18:20=30,954 
90 BELTheo PirmezBELBelgium06:59:38  +  00:21:13=30,741 
91 FRAPierre JaminetFRAFrance07:17:35  +  00:39:10=29,480 
92 DEUFritz RulandDEUGermany07:25:00  +  00:46:35=28,989 
93 ESPEmiliano AlvarezESPSpain07:29:24  +  00:50:59=28,705 
94 FRAPaul MayeFRAFrance08:10:00  +  01:31:35=26,327 

Withdrawls: 2
 
Rider
Team
Reason
54  ESPAntonio PriorESPSpainDid not finish
96  FRACharles BouvetFRABluetsDid not finish

Todays birthdays.

1899  Ardito Bresciani
1908  Renato Scorticati
1927  Marcel Huber
1941  Roger Cooreman
1942  Luis Santamarina
1952  Ferdi Van den Haute
1956  Graziano Salvietti
1961  Massimo Ghirotto
1963  Thierry Marie
1968  Dominik Krieger
1979  Sébastien Joly
1981  Yohann Gène
1982  William Bonnet
1986  Marcel Wyss
1987  Rafael Valls Ferri
1988  Egor Silin